Weather History for Ludington, MI

Change the Weather History Date:

Friday, September 7, 2012

  Actual Average Record
Temperature  
Mean Temperature 54 °F -  
Max Temperature 59 °F 75 °F 87 °F (1960)
Min Temperature 50 °F 53 °F 38 °F (1986)
Degree Days  
Heating Degree Days 10    
Growing Degree Days 4 (Base 50)    
Moisture  
Dew Point 51 °F    
Average Humidity 86    
Maximum Humidity 91    
Minimum Humidity 73    
Precipitation  
Precipitation 0.37 in - - ()
Sea Level Pressure  
Sea Level Pressure 29.87 in    
Wind  
Wind Speed 1 mph (NNE)    
Max Wind Speed 15 mph    
Max Gust Speed 23 mph    
Visibility 9 miles    
Events Fog , Rain    
Averages and records for this station are not official NWS values.
T = Trace of Precipitation, MM = Missing Value Source: NWS Daily Summary

Daily Weather History Graph

Daily Weather History Graph

Search for Another Location

Airport:

Trip Planner

Search our weather history database for the weather conditions in past years. The results will help you decide how hot, cold, wet, or windy it might be!

Date:

Astronomy

Sep. 07, 2012 Rise Set
Actual Time 7:16 AM EDT 8:09 PM EDT
Civil Twilight 6:46 AM EDT 8:39 PM EDT
Nautical Twilight 6:12 AM EDT 9:13 PM EDT
Astronomical Twilight 5:35 AM EDT 9:50 PM EDT
Moon 11:50 PM EDT (9/7) 2:22 PM EDT (9/7)
Length of Visible Light 13h 52m
Length of Day
12h 53m
Waning Gibbous, 58% of the Moon is Illuminated
Sep 7
Waning Gibbous
Sep 8
Last Quarter
Sep 15
New
Sep 22
First Quarter
Sep 29
Full

Hourly Weather History & Observations

Time (EDT) Temp. Dew Point Humidity Pressure Visibility Wind Dir Wind Speed Gust Speed Precip Events Conditions
12:15 AM 53.1 °F 47.8 °F 82% 29.92 in 10.0 mi Calm Calm - N/A   Clear
12:35 AM 53.1 °F 48.2 °F 84% 29.92 in 10.0 mi Calm Calm - N/A   Clear
12:55 AM 55.6 °F 49.3 °F 79% 29.92 in 10.0 mi Calm Calm - N/A   Clear
1:15 AM 55.6 °F 48.6 °F 77% 29.93 in 10.0 mi Calm Calm - N/A   Clear
1:35 AM 55.6 °F 47.3 °F 74% 29.94 in 10.0 mi Calm Calm - N/A   Clear
1:55 AM 55.6 °F 49.1 °F 79% 29.92 in 10.0 mi ENE 3.5 mph - N/A   Scattered Clouds
2:15 AM 55.6 °F 49.1 °F 79% 29.91 in 10.0 mi East 3.5 mph - N/A   Scattered Clouds
2:35 AM 55.6 °F 49.6 °F 80% 29.91 in 10.0 mi Calm Calm - N/A   Clear
2:55 AM 54.5 °F 49.3 °F 83% 29.91 in 10.0 mi Calm Calm - N/A   Clear
3:15 AM 53.1 °F 48.7 °F 85% 29.90 in 10.0 mi Calm Calm - N/A   Clear
3:35 AM 53.1 °F 48.6 °F 85% 29.88 in 10.0 mi Calm Calm - N/A   Clear
3:55 AM 53.1 °F 49.1 °F 86% 29.88 in 10.0 mi Calm Calm - N/A   Clear
4:15 AM 53.6 °F 48.7 °F 84% 29.89 in 10.0 mi Calm Calm - N/A   Clear
4:35 AM 55.6 °F 50.0 °F 81% 29.89 in 10.0 mi Calm Calm - N/A   Clear
4:55 AM 53.1 °F 48.2 °F 84% 29.89 in 10.0 mi Calm Calm - N/A   Clear
5:14 AM 53.1 °F 48.6 °F 85% 29.88 in 10.0 mi Calm Calm - N/A   Clear
5:35 AM 53.1 °F 48.6 °F 85% 29.89 in 10.0 mi Calm Calm - N/A   Clear
5:55 AM 50.5 °F 46.6 °F 86% 29.88 in 10.0 mi Calm Calm - N/A   Clear
6:15 AM 50.5 °F 46.9 °F 87% 29.89 in 10.0 mi North 5.8 mph - N/A   Clear
6:35 AM 53.1 °F 48.6 °F 85% 29.89 in 10.0 mi Calm Calm - N/A   Scattered Clouds
6:55 AM 53.1 °F 48.7 °F 85% 29.87 in 10.0 mi Calm Calm - N/A   Clear
7:15 AM 53.1 °F 48.9 °F 86% 29.88 in 10.0 mi Calm Calm - N/A   Clear
7:35 AM 53.1 °F 48.6 °F 85% 29.89 in 10.0 mi Calm Calm - N/A   Clear
7:55 AM 53.1 °F 48.6 °F 85% 29.91 in 10.0 mi Calm Calm - N/A   Scattered Clouds
8:15 AM 53.4 °F 49.1 °F 85% 29.91 in 10.0 mi Calm Calm - N/A   Scattered Clouds
8:35 AM 55.6 °F 51.4 °F 86% 29.92 in 10.0 mi Calm Calm - N/A   Scattered Clouds
8:55 AM 55.6 °F 50.2 °F 82% 29.92 in 10.0 mi East 3.5 mph - N/A   Scattered Clouds
9:15 AM 55.6 °F 50.0 °F 81% 29.92 in 10.0 mi Calm Calm - N/A   Mostly Cloudy
9:35 AM 58.1 °F 51.8 °F 80% 29.92 in 10.0 mi Calm Calm - N/A   Mostly Cloudy
9:55 AM 58.1 °F 49.6 °F 73% 29.91 in 10.0 mi Calm Calm - N/A Rain Light Rain
10:15 AM 58.1 °F 52.5 °F 82% 29.91 in 10.0 mi ESE 4.6 mph - N/A Rain Light Rain
10:35 AM 58.1 °F 52.5 °F 82% 29.90 in 10.0 mi Calm Calm - 0.01 in Rain Rain
10:55 AM 58.1 °F 52.7 °F 82% 29.90 in 2.5 mi Calm Calm - 0.04 in Rain Rain
11:15 AM 58.1 °F 52.9 °F 83% 29.90 in 4.0 mi Calm Calm - 0.03 in Rain Rain
11:35 AM 58.1 °F 54.0 °F 86% 29.90 in 7.0 mi Calm Calm - 0.05 in Rain Rain
11:55 AM 58.1 °F 53.8 °F 86% 29.89 in 5.0 mi Calm Calm - 0.08 in Rain Light Rain
12:15 PM 58.1 °F 54.5 °F 88% 29.89 in 10.0 mi Calm Calm - 0.01 in Rain Rain
12:34 PM 58.1 °F 54.5 °F 88% 29.89 in 7.0 mi Calm Calm - 0.03 in Rain Light Rain
12:55 PM 58.1 °F 54.7 °F 88% 29.88 in 5.0 mi Calm Calm - 0.06 in Rain Rain
1:15 PM 58.1 °F 54.9 °F 89% 29.87 in 7.0 mi Calm Calm - 0.02 in Rain Rain
1:34 PM 58.1 °F 55.0 °F 90% 29.86 in 5.0 mi North 3.5 mph - 0.05 in Rain Rain
1:55 PM 58.3 °F 55.2 °F 90% 29.85 in 7.0 mi Calm Calm - 0.06 in Rain Rain
2:15 PM 59.4 °F 56.3 °F 90% 29.83 in 10.0 mi Calm Calm - 0.01 in   Drizzle
2:35 PM 59.4 °F 56.3 °F 90% 29.83 in 10.0 mi Calm Calm - 0.01 in   Overcast
2:55 PM 59.4 °F 55.9 °F 88% 29.82 in 10.0 mi Calm Calm - 0.01 in   Overcast
3:15 PM 59.7 °F 56.1 °F 88% 29.82 in 10.0 mi North 5.8 mph - N/A   Overcast
3:40 PM 59.4 °F 55.8 °F 88% 29.82 in 10.0 mi North 9.2 mph - N/A   Overcast
4:00 PM 59.2 °F 55.6 °F 88% 29.82 in 10.0 mi North 9.2 mph - N/A Rain Rain
4:15 PM 58.1 °F 54.1 °F 87% 29.82 in 10.0 mi North 15.0 mph 23.0 mph N/A   Light Drizzle
4:35 PM 58.1 °F 54.0 °F 86% 29.83 in 10.0 mi North 12.7 mph - N/A Rain Light Rain
4:55 PM 58.1 °F 54.1 °F 87% 29.82 in 10.0 mi NNE 6.9 mph - N/A Rain Rain
5:15 PM 58.1 °F 54.0 °F 86% 29.82 in 10.0 mi North 5.8 mph - N/A   Overcast
5:55 PM 55.6 °F 51.8 °F 87% 29.84 in 10.0 mi NNE 3.5 mph - 0.02 in Rain Rain
6:15 PM 55.6 °F 52.0 °F 88% 29.84 in 5.0 mi Calm Calm - 0.03 in Rain Rain
6:35 PM 55.6 °F 52.0 °F 88% 29.84 in 7.0 mi ENE 3.5 mph - 0.07 in Rain Rain
6:55 PM 55.6 °F 52.2 °F 88% 29.84 in 7.0 mi Calm Calm - 0.09 in Rain Rain
7:15 PM 55.6 °F 52.2 °F 88% 29.83 in 10.0 mi Calm Calm - N/A Rain Rain
7:35 PM 55.6 °F 52.3 °F 89% 29.82 in 10.0 mi Calm Calm - 0.01 in Rain Rain
7:55 PM 55.6 °F 52.3 °F 89% 29.82 in 10.0 mi Calm Calm - 0.01 in   Overcast
8:15 PM 55.6 °F 52.3 °F 89% 29.82 in 10.0 mi Calm Calm - N/A Rain Light Rain
8:35 PM 55.6 °F 52.7 °F 90% 29.82 in 10.0 mi Calm Calm - N/A   Overcast
8:55 PM 55.6 °F 52.7 °F 90% 29.82 in 10.0 mi Calm Calm - N/A   Scattered Clouds
9:15 PM 55.6 °F 52.7 °F 90% 29.81 in 10.0 mi Calm Calm - N/A   Scattered Clouds
9:35 PM 55.2 °F 52.2 °F 89% 29.81 in 10.0 mi Calm Calm - N/A   Mostly Cloudy
9:55 PM 54.5 °F 51.4 °F 89% 29.81 in 10.0 mi Calm Calm - N/A   Mostly Cloudy
10:14 PM 53.6 °F 50.7 °F 90% 29.81 in 10.0 mi Calm Calm - N/A   Mostly Cloudy
10:35 PM 53.1 °F 50.2 °F 90% 29.82 in 1.0 mi Calm Calm - N/A   Overcast
10:55 PM 53.1 °F 50.2 °F 90% 29.81 in 1.2 mi Calm Calm - N/A   Mostly Cloudy
11:14 PM 53.1 °F 50.2 °F 90% 29.82 in 0.5 mi Calm Calm - N/A Fog Fog
11:35 PM 53.1 °F 50.4 °F 91% 29.81 in 0.5 mi Calm Calm - N/A Fog Fog
11:55 PM 50.9 °F 48.2 °F 90% 29.81 in 1.2 mi Calm Calm - N/A   Mostly Cloudy